sat.trackr.live / text

‹ back to catalog

STARLINK-31423

NORAD 59242 · 2024-049M

PAYLOAD ACTIVE UNKNOWN

§ Identity

Operator
Country
US
Launch date
2024-03-16
Launch site
AFETR
Launch vehicle
Mass (kg)
RCS (m²)

Purposes: comms

External: N2YO · Heavens-Above · Gunter

§ Orbital elements

Epoch: 2026-05-25T04:41:04.028064Z

Period
94.27 min
Inclination
43.0037°
Eccentricity
0.0001151
Mean motion
15.27606444 rev/d
Perigee alt
482.2 km
Apogee alt
483.8 km
Semi-major
6,861.1 km
B*
-1.2666e-4
RAAN
71.7246°
Arg perigee
269.7997°
Mean anomaly
90.2723°
Rev number
12,410

§ Raw data

STARLINK-314231 59242U 24049M   26145.19518551 -.00003749  00000+0 -12666-3 0  99922 59242  43.0037  71.7246 0001151 269.7997  90.2723 15.27606444124105

JSON: /api/v1/satellites/59242 · /tle

For live sub-satellite position, see the globe view (requires WebGL).

§ Visibility from observer

Set your observer location to see the next 7 days of passes ≥ 10°. The values pass through the URL so the page stays shareable.

No JS? Fill the form by hand. The geolocation button needs JavaScript.